Wind_Speed
36 35 38 35 38 39 34 29 27 21 11 2 20 27 37 35 33 24 7 7 13 8 7 4 5 5 5 5 5 5 6 5 4 4 4 5 6 6 6 6 6 6 7 7 7 7 7 8 8
44 42 42 42 45 42 34 28 32 17 9 9 19 30 39 42 35 31 26 18 13 9 7 4 4 3 3 4 4 5 6 4 4 4 5 6 6 7 6 7 7 6 7 7 7 8 8 9 8
51 49 49 48 48 47 32 29 29 24 7 17 24 30 39 48 37 27 21 7 5 8 5 7 5 4 3 1 2 4 6 6 5 6 7 8 8 9 10 10 11 10 10 10 9 9 9 11 11
53 57 55 57 54 42 34 29 25 36 23 19 25 34 42 41 47 34 3 11 11 12 13 11 10 9 8 7 7 6 7 7 5 6 8 10 11 11 11 10 10 9 9 11 11 11 11 13 15
54 60 61 61 57 45 39 32 29 32 28 16 23 28 41 43 40 38 25 19 15 17 17 16 15 15 14 11 11 9 7 7 8 8 9 10 9 9 9 9 10 10 10 12 13 13 14 15 17
53 57 65 64 59 49 46 37 33 37 39 27 19 30 32 38 42 36 30 28 25 22 21 20 19 19 17 18 15 9 9 7 7 8 10 11 11 11 11 10 12 12 12 11 12 14 16 18 19
49 54 57 61 59 56 50 43 41 36 40 37 11 37 35 37 34 34 32 31 28 26 24 24 23 21 21 20 17 12 13 13 11 11 11 10 11 11 11 11 13 14 15 15 15 15 18 20 23
34 52 55 59 60 58 52 50 46 44 47 37 27 33 35 41 47 45 35 30 28 27 24 23 24 23 22 22 20 18 18 17 16 16 16 15 15 14 14 15 15 16 18 18 18 18 21 24 26
40 43 51 50 55 50 45 47 50 49 50 40 31 27 38 42 52 50 40 30 27 27 25 24 22 23 23 23 21 21 19 18 18 17 16 15 15 17 17 19 20 20 21 21 20 22 24 27 30
50 46 35 38 46 45 40 45 45 50 50 48 36 33 44 41 57 53 45 32 29 28 28 26 25 25 26 26 24 23 20 20 20 19 17 16 19 22 21 21 22 23 23 24 25 27 31 32 33
49 51 36 32 39 45 42 44 44 45 39 52 51 42 50 50 55 57 51 37 33 32 33 31 30 30 31 30 28 24 21 22 22 20 18 20 22 24 25 25 25 25 26 28 30 34 37 38 39
53 46 43 39 39 41 45 40 46 49 47 46 56 50 59 59 62 61 55 42 40 37 35 37 37 37 36 34 29 25 23 24 24 24 24 26 24 23 23 26 25 26 30 32 35 38 38 39 39
57 49 47 44 44 41 43 50 46 53 53 55 52 56 57 66 66 62 58 53 49 44 41 42 47 43 39 36 29 26 25 28 28 26 27 27 26 27 26 27 28 29 29 31 32 35 36 38 40
51 54 51 49 47 44 42 41 51 46 53 58 61 62 59 59 60 56 55 46 47 48 45 48 50 56 50 35 29 26 26 29 29 30 29 29 29 30 31 31 28 31 32 35 38 39 39 38 41
56 56 56 56 50 47 45 46 42 41 48 54 59 57 50 49 55 55 54 32 39 48 50 56 59 33 54 40 33 25 26 29 30 30 30 31 32 33 33 32 32 33 32 32 34 37 37 38 39
61 60 59 54 54 52 50 50 43 45 48 52 58 53 47 44 45 48 33 33 40 44 50 48 44 36 29 26 25 35 24 27 30 30 31 32 34 35 33 34 35 37 37 36 37 40 40 40 40
66 68 64 55 55 55 56 50 46 50 47 46 48 49 49 45 42 40 27 29 39 43 49 50 44 40 38 40 50 37 21 27 31 32 30 32 34 36 36 36 39 39 40 41 38 38 40 41 42
68 67 67 61 55 57 57 54 49 49 50 45 43 42 40 39 38 35 31 28 33 39 45 48 38 38 35 39 35 25 24 28 30 32 32 31 32 34 37 38 38 40 40 40 41 41 41 42 40
62 63 62 58 55 53 55 55 53 50 52 47 45 41 37 30 26 30 33 31 36 36 43 39 33 34 31 29 18 19 27 29 30 33 33 32 34 35 34 35 38 39 40 41 44 44 43 43 44
68 62 64 56 53 55 52 50 47 47 48 46 43 43 37 29 27 24 24 29 34 31 33 31 27 27 35 28 27 29 33 31 30 31 31 34 35 32 35 37 39 40 42 44 46 48 48 47 46
67 66 62 59 51 43 50 48 47 47 47 43 44 40 38 33 29 25 22 26 25 27 30 33 29 24 28 31 33 33 34 26 30 33 34 33 30 33 35 38 40 42 45 47 48 49 50 51 51
65 66 62 60 53 54 43 48 44 46 46 44 42 40 39 33 31 27 26 23 23 25 25 29 32 23 24 31 36 21 21 31 32 33 33 31 30 33 37 40 42 43 45 47 49 51 53 52 48
56 58 62 59 55 50 46 37 37 40 47 45 41 41 37 36 33 30 27 27 25 22 21 27 15 22 22 28 34 22 26 27 32 33 32 31 33 35 40 41 43 44 45 46 47 48 50 51 47
37 46 60 60 54 57 48 44 35 36 47 47 43 39 36 36 33 33 30 30 25 23 22 22 23 25 17 22 17 22 27 29 29 31 30 29 31 37 39 40 41 41 42 43 43 44 43 44 45
40 46 49 45 59 59 50 42 43 33 40 42 39 43 36 32 34 33 31 31 29 23 21 22 20 12 18 24 25 27 27 27 27 25 26 28 33 34 36 39 40 41 40 39 41 39 39 38 38
44 51 52 50 46 59 54 47 45 37 31 33 33 32 34 37 33 34 33 33 31 27 27 22 18 20 22 26 24 23 24 23 24 24 26 29 30 33 37 39 39 39 40 38 37 38 39 40 37
40 53 53 45 37 47 60 49 47 35 25 28 35 37 37 32 36 37 36 34 30 30 32 23 20 24 26 26 24 24 26 26 25 26 27 28 33 36 36 35 36 36 36 36 39 41 41 42 40
32 36 56 46 38 46 57 57 56 37 27 31 31 31 36 34 37 40 37 36 34 33 31 24 24 30 29 26 27 27 27 26 24 27 30 31 35 34 32 33 34 35 35 39 39 40 40 40 38
25 48 58 48 44 34 43 60 55 34 34 32 32 34 35 38 40 36 37 34 36 33 32 27 30 27 30 29 27 24 23 23 30 30 30 34 31 30 32 33 36 37 41 42 39 40 29 30 35
35 40 47 57 49 37 37 47 60 46 40 40 36 36 35 33 32 39 36 37 37 33 30 28 31 31 28 27 25 25 29 31 30 28 31 29 29 31 34 37 40 43 44 44 41 43 43 34 41
Wind_Direction
231 231 235 234 231 228 210 199 173 152 148 214 271 263 251 247 256 247 182 226 156 156 154 162 211 221 220 228 249 261 265 262 262 271 268 273 279 282 290 302 316 338 335 332 326 332 323 320 317
237 232 234 236 234 230 215 204 196 168 201 247 243 244 254 258 260 261 276 269 216 177 160 170 181 190 219 224 238 260 253 243 246 243 262 269 276 283 293 299 307 319 325 320 320 321 313 306 304
235 235 235 236 238 233 220 219 207 184 263 290 274 261 260 258 255 237 245 266 213 185 230 233 217 187 173 185 285 284 280 271 262 271 271 276 281 290 294 299 303 311 312 309 309 307 302 299 295
238 235 233 237 238 236 230 223 216 211 216 243 247 263 263 258 252 272 113 228 210 200 242 240 242 240 237 243 278 292 269 255 247 265 270 275 280 289 293 292 291 298 302 302 302 300 294 291 292
237 238 236 237 239 234 232 222 217 225 211 222 234 247 259 262 256 257 245 246 233 231 243 244 245 246 247 261 275 282 272 251 253 253 260 261 264 270 275 283 287 290 293 296 299 297 289 289 297
238 238 237 236 239 235 232 222 221 219 212 222 267 264 259 258 253 252 248 241 247 247 244 248 248 247 251 263 279 273 261 253 255 250 251 258 267 274 279 288 292 292 292 285 292 294 293 294 297
239 240 240 241 239 235 230 223 217 224 227 219 231 267 259 254 250 246 247 245 247 246 249 251 251 250 256 264 267 253 251 263 263 255 253 261 266 277 285 292 296 293 289 287 289 290 295 297 297
245 239 237 237 238 235 234 223 218 212 224 219 220 263 254 258 256 255 248 239 244 252 250 250 249 251 251 256 261 260 259 259 265 269 270 271 274 279 281 286 288 287 287 285 285 286 293 295 295
246 245 238 237 240 243 239 232 224 214 215 215 211 219 243 249 255 255 251 244 242 250 252 254 254 254 253 251 254 256 253 258 263 268 270 274 269 274 278 279 280 278 278 279 276 282 289 293 292
247 249 248 241 242 239 234 234 223 226 218 213 208 210 234 242 252 257 254 246 247 251 255 253 254 253 252 253 249 250 251 257 261 265 271 272 270 272 276 276 274 274 275 272 271 278 289 290 291
248 247 247 239 237 238 232 228 221 214 206 204 215 208 231 233 247 258 259 253 247 244 251 254 254 253 252 250 250 252 254 258 264 268 271 273 276 281 283 279 276 272 271 271 273 284 288 290 292
248 247 242 236 236 234 230 231 215 203 203 211 210 221 226 232 243 251 255 257 252 245 246 252 251 250 248 247 248 252 255 261 266 272 277 281 285 285 284 279 279 276 273 273 277 284 285 288 290
246 244 240 235 234 232 234 229 229 206 201 212 220 218 226 241 245 252 256 258 256 254 246 249 251 249 247 249 248 255 261 266 270 274 276 282 286 287 288 288 289 284 278 282 286 287 290 289 288
242 238 235 234 232 231 231 229 227 228 219 226 226 228 222 232 246 248 250 251 258 260 258 249 245 253 232 232 241 252 258 264 270 273 278 282 285 288 286 286 283 281 283 287 286 285 286 285 286
240 237 233 230 230 228 231 225 230 231 231 235 234 240 239 231 240 247 253 262 255 259 258 252 253 245 238 218 222 239 250 259 267 274 277 279 281 283 288 290 292 292 287 281 278 277 279 284 285
237 236 234 231 230 228 225 227 224 225 222 233 239 242 243 241 241 248 254 247 251 253 262 264 246 273 256 220 251 260 236 253 263 270 277 279 281 283 287 288 291 296 295 295 296 295 296 293 291
232 236 238 231 231 231 229 230 225 230 225 226 238 244 242 245 246 255 248 246 251 254 258 265 271 275 278 270 256 255 241 254 262 267 271 273 279 286 291 293 296 297 298 298 298 297 297 297 298
231 233 235 235 231 228 229 228 224 228 234 229 228 238 243 244 247 245 237 236 243 254 257 264 272 272 275 253 234 253 259 259 266 266 268 275 277 283 290 293 296 299 299 301 300 299 300 300 298
237 234 237 240 234 233 232 230 226 224 232 230 229 232 236 239 235 241 239 237 235 248 259 267 270 275 220 199 265 248 254 255 259 267 272 276 282 287 289 293 296 296 300 301 300 301 303 302 302
234 231 231 230 234 231 232 234 235 229 231 234 230 230 233 226 230 237 238 231 237 249 257 257 252 248 257 257 258 253 254 265 266 269 275 282 282 287 292 294 294 297 296 297 298 299 301 301 301
226 226 225 227 223 227 230 228 227 228 227 230 230 229 230 227 231 234 237 234 238 243 247 245 246 246 250 250 247 246 253 255 261 267 269 274 284 290 291 290 294 294 294 293 295 297 299 299 299
222 222 220 222 220 215 212 228 224 226 224 225 226 227 229 226 227 225 227 235 238 237 239 251 241 238 231 240 251 226 243 246 253 263 269 278 283 283 285 288 286 290 291 293 294 295 295 295 296
218 221 219 218 212 212 201 220 227 228 225 220 226 228 227 224 227 225 220 228 234 235 239 243 259 255 238 236 240 245 248 249 252 261 268 276 277 282 282 286 291 292 294 295 296 295 292 291 291
206 212 212 209 208 200 200 201 208 206 226 221 219 223 225 224 223 224 218 224 231 229 232 237 237 240 246 243 244 239 246 251 259 264 268 271 275 276 285 287 289 294 297 298 297 297 296 295 294
191 186 205 199 198 203 193 196 206 215 226 229 225 220 219 216 218 220 223 224 225 229 237 237 241 233 228 229 234 239 246 254 260 265 270 270 270 283 287 292 298 300 298 297 299 295 296 302 300
199 185 191 195 204 197 192 195 204 214 228 232 221 221 213 216 217 216 219 222 223 228 238 231 224 224 230 227 237 247 256 259 266 270 269 275 284 287 292 298 298 297 298 302 306 298 297 294 296
196 196 184 198 199 204 196 199 210 185 184 193 211 213 219 215 215 219 218 219 223 225 234 229 224 231 239 242 248 256 257 264 262 272 280 284 288 292 294 298 298 299 300 308 313 311 306 302 294
197 197 190 189 191 198 200 202 205 183 188 210 218 216 213 208 213 217 220 223 223 222 228 216 225 228 239 252 254 255 260 266 274 275 280 283 287 291 297 300 298 300 301 304 308 305 306 304 293
212 190 194 188 186 185 192 202 207 188 184 195 209 216 206 208 214 223 220 228 229 222 228 215 229 240 245 253 260 264 265 264 264 272 279 282 291 297 304 303 299 297 297 303 306 309 308 306 301
206 188 196 188 188 177 189 199 203 188 186 188 197 209 223 222 225 221 225 221 226 226 224 232 235 238 245 251 254 255 255 260 264 271 279 288 297 302 304 302 302 300 298 298 297 310 301 304 305
Height
5864 5865 5865 5869 5872 5872 5880 5887 5891 5891 5894 5894 5900 5900 5894 5891 5892 5897 5895 5903 5908 5910 5913 5915 5917 5917 5918 5919 5920 5921 5922 5922 5923 5923 5923 5924 5924 5924 5924 5924 5924 5924 5923 5923 5923 5923 5922 5921 5920
5856 5858 5859 5860 5861 5866 5877 5885 5887 5892 5893 5890 5897 5902 5889 5885 5892 5897 5898 5904 5908 5909 5910 5914 5916 5916 5917 5918 5919 5920 5922 5922 5922 5923 5923 5923 5923 5924 5924 5924 5924 5923 5923 5923 5922 5921 5921 5920 5919
5845 5847 5851 5852 5854 5858 5875 5880 5885 5888 5885 5890 5892 5895 5887 5883 5890 5897 5903 5902 5905 5909 5910 5914 5915 5916 5917 5918 5919 5920 5921 5921 5921 5922 5922 5922 5922 5923 5923 5923 5924 5923 5923 5922 5921 5920 5920 5919 5917
5833 5836 5840 5839 5846 5861 5871 5877 5881 5883 5878 5879 5884 5885 5879 5877 5884 5891 5898 5899 5903 5906 5909 5912 5914 5915 5916 5917 5918 5919 5920 5920 5920 5921 5921 5921 5921 5921 5923 5922 5923 5922 5922 5921 5920 5919 5919 5917 5916
5823 5825 5828 5832 5839 5856 5863 5871 5875 5877 5873 5870 5877 5879 5873 5872 5877 5885 5896 5897 5900 5904 5906 5909 5911 5913 5914 5914 5916 5917 5918 5919 5919 5919 5920 5920 5920 5921 5921 5921 5921 5921 5920 5919 5919 5918 5917 5916 5915
5813 5815 5818 5824 5833 5847 5853 5864 5868 5867 5869 5870 5873 5873 5870 5873 5871 5880 5888 5893 5896 5899 5903 5906 5909 5911 5911 5912 5913 5915 5917 5918 5918 5918 5918 5918 5918 5919 5919 5919 5919 5918 5918 5917 5917 5916 5915 5914 5913
5806 5806 5812 5817 5824 5834 5844 5855 5859 5865 5866 5866 5867 5866 5865 5866 5866 5874 5885 5891 5894 5897 5900 5903 5906 5908 5909 5909 5911 5913 5914 5914 5915 5916 5916 5916 5916 5916 5916 5916 5916 5916 5915 5915 5914 5914 5913 5912 5911
5797 5796 5801 5806 5814 5824 5835 5843 5851 5855 5860 5864 5862 5862 5858 5858 5863 5862 5877 5886 5891 5892 5896 5899 5901 5903 5905 5907 5908 5909 5910 5911 5912 5913 5913 5913 5913 5913 5913 5913 5912 5912 5912 5912 5911 5910 5910 5908 5906
5787 5786 5793 5804 5808 5818 5826 5833 5841 5847 5852 5856 5856 5859 5851 5850 5854 5859 5869 5883 5889 5890 5893 5896 5898 5900 5901 5902 5905 5906 5907 5908 5908 5909 5909 5909 5909 5910 5909 5909 5908 5908 5908 5908 5907 5906 5905 5903 5902
5774 5779 5790 5800 5801 5805 5813 5819 5830 5834 5839 5847 5849 5850 5847 5843 5845 5852 5861 5875 5883 5886 5888 5891 5893 5895 5896 5898 5900 5902 5903 5903 5904 5904 5904 5905 5905 5905 5905 5904 5904 5903 5902 5902 5901 5900 5899 5898 5896
5767 5771 5786 5789 5790 5793 5801 5807 5813 5819 5827 5834 5842 5843 5839 5840 5840 5845 5852 5865 5876 5880 5881 5885 5887 5889 5891 5893 5896 5900 5901 5902 5901 5901 5900 5900 5901 5901 5900 5900 5899 5898 5896 5896 5895 5894 5893 5892 5890
5754 5764 5772 5779 5779 5784 5791 5798 5799 5807 5815 5821 5829 5835 5832 5832 5836 5839 5843 5856 5862 5874 5877 5876 5878 5880 5883 5885 5891 5893 5896 5896 5897 5897 5897 5897 5896 5896 5895 5894 5894 5893 5891 5890 5888 5888 5886 5884 5882
5742 5756 5757 5766 5769 5774 5779 5786 5790 5796 5803 5810 5817 5825 5830 5827 5832 5835 5841 5847 5849 5859 5868 5871 5866 5869 5876 5880 5886 5889 5892 5893 5893 5892 5892 5891 5891 5890 5890 5890 5888 5886 5885 5885 5883 5880 5879 5876 5874
5734 5736 5744 5751 5759 5765 5770 5778 5778 5792 5799 5801 5802 5810 5820 5826 5822 5829 5833 5845 5845 5849 5854 5857 5856 5857 5862 5870 5879 5883 5884 5886 5887 5887 5887 5885 5884 5883 5882 5883 5884 5882 5880 5877 5873 5872 5872 5871 5866
5715 5718 5727 5737 5749 5756 5760 5764 5774 5786 5789 5790 5791 5799 5811 5821 5821 5823 5828 5845 5842 5838 5837 5845 5837 5852 5856 5859 5866 5873 5874 5878 5882 5880 5880 5878 5876 5876 5875 5874 5873 5871 5870 5869 5867 5864 5862 5860 5856
5694 5701 5711 5733 5737 5745 5748 5757 5769 5772 5775 5781 5784 5791 5798 5809 5815 5817 5832 5835 5834 5834 5827 5830 5795 5845 5853 5858 5862 5868 5867 5871 5876 5875 5872 5870 5869 5868 5868 5866 5864 5862 5861 5859 5857 5851 5849 5847 5846
5676 5690 5702 5721 5725 5733 5736 5751 5759 5761 5766 5774 5778 5783 5792 5799 5808 5812 5823 5826 5825 5828 5825 5820 5829 5837 5841 5844 5852 5856 5858 5864 5867 5868 5868 5866 5863 5861 5860 5858 5856 5854 5852 5849 5848 5845 5842 5840 5838
5675 5683 5691 5702 5714 5716 5725 5737 5747 5753 5758 5767 5774 5777 5783 5792 5800 5807 5814 5819 5814 5819 5823 5823 5829 5828 5835 5832 5844 5839 5846 5851 5856 5858 5859 5859 5858 5856 5853 5850 5849 5849 5845 5842 5838 5835 5834 5833 5832
5662 5668 5677 5690 5703 5706 5717 5725 5734 5743 5747 5757 5765 5772 5779 5788 5794 5798 5804 5810 5804 5813 5818 5823 5821 5823 5825 5803 5827 5832 5842 5843 5847 5849 5849 5851 5852 5850 5848 5846 5844 5842 5839 5836 5830 5826 5826 5824 5822
5638 5651 5660 5677 5686 5697 5708 5714 5726 5733 5742 5749 5758 5766 5773 5782 5787 5793 5799 5799 5800 5809 5813 5817 5818 5821 5816 5820 5826 5832 5835 5837 5841 5844 5843 5845 5845 5843 5842 5839 5838 5835 5831 5827 5823 5819 5817 5816 5811
5618 5633 5651 5663 5677 5685 5696 5701 5710 5723 5733 5740 5749 5759 5767 5776 5783 5789 5792 5792 5797 5799 5801 5805 5810 5815 5813 5816 5822 5829 5830 5833 5838 5838 5838 5840 5840 5837 5835 5833 5831 5827 5823 5819 5816 5812 5809 5808 5803
5602 5623 5641 5652 5663 5671 5684 5688 5699 5712 5724 5731 5743 5752 5760 5768 5775 5783 5785 5788 5790 5793 5798 5801 5805 5810 5809 5814 5815 5821 5826 5829 5831 5832 5833 5834 5833 5830 5827 5826 5823 5820 5816 5812 5808 5806 5802 5799 5794
5597 5617 5631 5644 5651 5662 5670 5682 5691 5702 5709 5727 5737 5743 5753 5761 5767 5775 5780 5781 5785 5790 5796 5799 5803 5804 5806 5808 5811 5817 5820 5822 5823 5826 5827 5827 5824 5822 5821 5819 5815 5812 5809 5805 5801 5798 5793 5790 5785
5590 5604 5619 5630 5643 5644 5661 5671 5680 5691 5708 5720 5728 5736 5744 5753 5761 5767 5774 5776 5780 5784 5791 5795 5799 5804 5801 5803 5808 5813 5815 5816 5816 5819 5821 5820 5819 5815 5815 5813 5809 5805 5801 5797 5792 5788 5785 5781 5776
5579 5591 5607 5616 5624 5635 5657 5662 5673 5689 5699 5710 5721 5729 5737 5745 5753 5759 5767 5772 5776 5780 5784 5789 5794 5794 5797 5803 5805 5809 5809 5811 5811 5815 5815 5815 5811 5810 5807 5805 5801 5797 5794 5789 5785 5781 5776 5772 5768
5575 5585 5595 5604 5615 5634 5650 5650 5673 5686 5695 5702 5711 5720 5727 5738 5746 5751 5760 5765 5770 5777 5779 5782 5786 5792 5794 5797 5801 5802 5802 5805 5806 5808 5809 5806 5803 5801 5799 5798 5795 5791 5787 5782 5777 5773 5769 5764 5761
5572 5575 5591 5606 5618 5632 5641 5661 5668 5679 5688 5692 5701 5712 5723 5732 5739 5743 5752 5759 5766 5770 5772 5779 5784 5786 5789 5791 5794 5795 5797 5798 5801 5800 5800 5797 5795 5794 5793 5790 5787 5783 5778 5774 5769 5764 5759 5754 5750
5568 5582 5589 5596 5611 5621 5636 5652 5660 5672 5679 5687 5697 5709 5716 5724 5731 5737 5745 5752 5760 5765 5769 5775 5778 5779 5783 5786 5787 5789 5791 5792 5792 5791 5790 5789 5789 5787 5784 5781 5778 5775 5772 5768 5763 5756 5749 5743 5740
5564 5571 5581 5596 5606 5617 5632 5644 5661 5671 5676 5682 5691 5700 5708 5715 5724 5732 5740 5746 5752 5758 5765 5769 5771 5775 5777 5779 5782 5785 5786 5787 5785 5784 5782 5781 5780 5778 5776 5773 5770 5767 5764 5760 5755 5748 5741 5735 5731
5563 5569 5580 5584 5601 5615 5626 5639 5649 5662 5670 5678 5686 5693 5703 5713 5721 5727 5733 5740 5744 5750 5758 5764 5767 5770 5773 5776 5777 5779 5778 5777 5777 5777 5777 5775 5773 5771 5768 5765 5762 5759 5755 5750 5745 5740 5734 5729 5725